Location: Blackfoot
(53.5367°N, 112.7800°W)
Time: 07:08:31
(UTC-07:00)

Amateur Radio Satellites - All Passes

Search period start: 12 February 2016 06:38
Search period end: 13 February 2016 06:38
Location: Blackfoot, 53.5367°N, 112.7800°W

Satellite Date Start Highest point End Downlink Frequencies (MHz)
Time Altitude Azimuth
Cosmos 2504 12 Feb 06:40:02 06:48:29 50° 293° (WNW) 06:57:06 435.465 / 435.565
YUBILEINY 12 Feb 06:50:29 06:56:10 18° 319° (NW) 07:01:53 435.215
BRITE-PL 12 Feb 06:57:21 07:01:54 40° 96° (E) 07:06:06 437.365/2234.400
CUTE-I 12 Feb 07:07:07 07:12:32 75° 104° (ESE) 07:17:54 437.470
O/OREOS (USA 219) 12 Feb 07:10:38 07:13:40 18° 101° (E) 07:16:43 437.305
DOVE 4 12 Feb 07:18:31 07:21:28 18° 89° (E) 07:24:22 437.250
HO-68 12 Feb 07:19:48 07:24:18 17° 83° (E) 07:28:45 435.675
Cubesat XI-IV 12 Feb 07:21:43 07:27:09 88° 286° (WNW) 07:32:33 437.490
AUBIESAT-1 12 Feb 07:24:15 07:24:38 10° 313° (NW) 07:25:00 437.475
AO-7 12 Feb 07:44:42 07:50:48 23° 325° (NW) 07:56:53 29.400- 29.500
STRAND 1 12 Feb 07:48:58 07:53:17 27° 268° (W) 07:57:39 437.568
GOMX 1 12 Feb 07:49:44 07:54:13 61° 100° (E) 07:58:26 467.674
Cosmos 2499 12 Feb 07:52:24 07:56:51 15° 67° (ENE) 08:01:16 435.465 / 435.565
CINEMA 3 12 Feb 07:53:49 07:56:16 15° 88° (E) 07:58:42 145.822/145.860
SO-50 12 Feb 07:54:41 07:58:59 29° 341° (NNW) 08:03:17 436.795
LilacSat-2 12 Feb 08:02:53 08:06:12 30° 295° (WNW) 08:09:32 437.200
PRISM 12 Feb 08:06:33 08:10:26 37° 262° (W) 08:14:22 437.425
CANX-2 12 Feb 08:09:11 08:12:54 27° 94° (E) 08:16:36 2200.000
UNISAT 6 12 Feb 08:12:28 08:14:30 13° 53° (NE) 08:16:33 437.425
GONETS M04 12 Feb 08:17:54 08:25:45 40° 84° (E) 08:33:39
BRITE-PL 12 Feb 08:36:00 08:40:22 33° 298° (WNW) 08:44:24 437.365/2234.400
Cosmos 2504 12 Feb 08:39:05 08:44:32 17° 320° (NW) 08:50:01 435.465 / 435.565
COMPASS 1 12 Feb 08:41:50 08:45:35 30° 94° (E) 08:49:20 437.405
CUTE-I 12 Feb 08:47:51 08:52:08 25° 305° (NW) 08:56:24 437.470
O/OREOS (USA 219) 12 Feb 08:48:01 08:52:32 75° 301° (WNW) 08:57:06 437.305
DOVE 4 12 Feb 08:55:26 08:59:41 61° 289° (WNW) 09:03:46 437.250
ANTELSAT 12 Feb 08:55:27 08:59:05 28° 62° (ENE) 09:02:43 437.575/2403.000
CUTE 1.7 + AOD 2 12 Feb 08:59:03 09:03:21 70° 102° (ESE) 09:07:38 437.475
SEEDS 12 Feb 09:00:39 09:04:52 57° 101° (E) 09:09:04 437.485
TIGRISAT 12 Feb 09:01:17 09:05:00 29° 63° (ENE) 09:08:42 435.000
Oscar 11 12 Feb 09:02:04 09:05:16 20° 90° (E) 09:08:26 145.826/435.025
Cubesat XI-IV 12 Feb 09:02:43 09:06:35 21° 308° (NW) 09:10:26 437.490
HO-68 12 Feb 09:06:09 09:13:23 70° 105° (ESE) 09:20:34 435.675
AAUSAT CUBESAT 2 12 Feb 09:07:44 09:11:46 43° 98° (E) 09:15:47 437.432
UWE-3 12 Feb 09:13:32 09:17:06 26° 94° (E) 09:20:41 435.000/436.395/437.385
CUBEBUG 2 12 Feb 09:18:21 09:22:16 37° 97° (E) 09:26:13 437.445
POLYITAN 1 12 Feb 09:28:07 09:31:02 18° 57° (ENE) 09:33:57 437.675
GOMX 1 12 Feb 09:28:32 09:31:56 21° 303° (WNW) 09:35:12 467.674
QB50P2 12 Feb 09:28:33 09:31:32 19° 57° (ENE) 09:34:31 145.880/145.840
CINEMA 3 12 Feb 09:29:48 09:33:58 73° 287° (WNW) 09:38:08 145.822/145.860
AO-85 12 Feb 09:35:15 09:39:16 21° 112° (ESE) 09:43:19 145.980
SO-50 12 Feb 09:36:56 09:40:53 23° 5° (N) 09:44:46 436.795
AO-7 12 Feb 09:37:23 09:40:40 13° 352° (N) 09:43:59 29.400- 29.500
Cosmos 2499 12 Feb 09:39:29 09:48:00 55° 90° (E) 09:56:32 435.465 / 435.565
PCSat 12 Feb 09:43:48 09:46:52 15° 105° (ESE) 09:49:56 145.827
CANX-2 12 Feb 09:44:52 09:48:55 42° 293° (WNW) 09:52:59 2200.000
UNISAT 6 12 Feb 09:46:16 09:50:33 75° 73° (ENE) 09:54:50 437.425
POPSAT HIP 1 12 Feb 09:56:41 10:00:22 30° 63° (ENE) 10:04:04 437.405
HUMSAT D 12 Feb 09:56:57 09:59:48 18° 89° (E) 10:02:41 437.325/437.525
NANOSAT C BR1 12 Feb 09:59:35 10:03:18 31° 64° (ENE) 10:07:01 145.865
DUCHIFAT 1 12 Feb 09:59:48 10:03:28 30° 63° (ENE) 10:07:09 145.980
DELFI C3 12 Feb 10:00:11 10:04:00 37° 97° (E) 10:07:46 145.870
ZACube-1 12 Feb 10:01:04 10:05:12 52° 100° (E) 10:09:23 437.345
FUNcube-1 12 Feb 10:08:40 10:12:50 58° 101° (E) 10:17:03 145.935
QB50P1 12 Feb 10:08:47 10:12:41 37° 66° (ENE) 10:16:36 145.935-145.965
GONETS M04 12 Feb 10:13:39 10:22:15 62° 288° (WNW) 10:30:57
COMPASS 1 12 Feb 10:17:20 10:21:15 38° 294° (WNW) 10:25:10 437.405
RS-15 12 Feb 10:18:35 10:27:07 26° 100° (E) 10:35:58 29.354- 29.394
O/OREOS (USA 219) 12 Feb 10:29:36 10:32:45 18° 324° (NW) 10:35:56 437.305
AIST 1 12 Feb 10:29:58 10:34:11 45° 94° (E) 10:38:25
ANTELSAT 12 Feb 10:31:36 10:35:41 43° 262° (W) 10:39:47 437.575/2403.000
DANDE 12 Feb 10:32:25 10:36:32 15° 36° (NE) 10:40:15 436.750
DOVE 4 12 Feb 10:35:22 10:36:32 11° 310° (NW) 10:37:40 437.250
CUTE 1.7 + AOD 2 12 Feb 10:35:44 10:38:47 19° 302° (WNW) 10:41:49 437.475
SEEDS 12 Feb 10:36:58 10:40:17 22° 300° (WNW) 10:43:35 437.485
Oscar 11 12 Feb 10:37:29 10:41:48 61° 290° (WNW) 10:46:06 145.826/435.025
TIGRISAT 12 Feb 10:37:36 10:41:37 39° 262° (W) 10:45:39 435.000
AISAT 12 Feb 10:40:51 10:42:24 12° 85° (E) 10:43:57 437.250
AAUSAT CUBESAT 2 12 Feb 10:43:35 10:47:08 27° 297° (WNW) 10:50:42 437.432
BUGSAT 1 12 Feb 10:49:06 10:53:07 47° 68° (ENE) 10:57:06 437.445
UWE-3 12 Feb 10:49:47 10:53:45 43° 292° (WNW) 10:57:47 435.000/436.395/437.385
CUBEBUG 1 12 Feb 10:52:10 10:54:01 12° 85° (E) 10:55:51 437.445
HO-68 12 Feb 10:54:19 11:00:42 36° 307° (NW) 11:07:05 435.675
DX 1 12 Feb 10:54:27 10:57:04 15° 88° (E) 10:59:40 434.975-435.025
CUBEBUG 2 12 Feb 10:55:12 10:58:52 30° 296° (WNW) 11:02:35 437.445
YUBILEINY 12 Feb 10:57:22 11:00:50 12° 29° (NNE) 11:04:18 435.215
POLYITAN 1 12 Feb 11:02:13 11:06:26 72° 257° (WSW) 11:10:40 437.675
QB50P2 12 Feb 11:02:43 11:06:56 69° 257° (WSW) 11:11:10 145.880/145.840
CINEMA 3 12 Feb 11:08:43 11:10:26 12° 307° (NW) 11:12:09 145.822/145.860
ESTCUBE 1 12 Feb 11:12:15 11:16:01 25° 92° (E) 11:19:45 437.505/2401.250
AO-85 12 Feb 11:13:42 11:19:11 85° 134° (SE) 11:24:43 145.980
50 SAT 12 Feb 11:14:21 11:17:30 24° 94° (E) 11:20:39 437.505
SO-50 12 Feb 11:17:59 11:22:36 38° 29° (NNE) 11:27:06 436.795
CUSAT 1 12 Feb 11:18:26 11:23:48 28° 55° (NE) 11:28:05 437.405
Gurwin Techsat 1B 12 Feb 11:20:10 11:21:57 12° 43° (NE) 11:23:43 435.225
PCSat 12 Feb 11:23:58 11:29:22 72° 125° (SE) 11:34:49 145.827
UNISAT 6 12 Feb 11:25:15 11:27:50 16° 272° (W) 11:30:26 437.425
AO-7 12 Feb 11:25:49 11:30:09 15° 20° (NNE) 11:34:31 29.400- 29.500
JAS-2 12 Feb 11:26:37 11:32:21 27° 54° (NE) 11:37:37 435.910
HUMSAT D 12 Feb 11:31:44 11:35:52 64° 289° (WNW) 11:40:03 437.325/437.525
POPSAT HIP 1 12 Feb 11:32:07 11:36:06 39° 262° (W) 11:40:05 437.405
Cosmos 2499 12 Feb 11:32:51 11:41:22 49° 293° (WNW) 11:49:53 435.465 / 435.565
NANOSAT C BR1 12 Feb 11:35:04 11:39:00 37° 263° (W) 11:42:57 145.865
DUCHIFAT 1 12 Feb 11:35:11 11:39:07 38° 262° (W) 11:43:05 145.980
DELFI C3 12 Feb 11:35:20 11:38:51 29° 296° (WNW) 11:42:21 145.870
ZACube-1 12 Feb 11:37:55 11:41:16 23° 299° (WNW) 11:44:39 437.345
ITAMSAT 1 12 Feb 11:42:57 11:43:35 10° 41° (NE) 11:44:13 435.822/435.867
QB50P1 12 Feb 11:44:50 11:48:34 30° 265° (W) 11:52:19 145.935-145.965
FUNcube-1 12 Feb 11:45:36 11:48:48 21° 300° (WNW) 11:52:00 145.935
VELOX 1 12 Feb 11:58:03 12:02:25 52° 100° (E) 12:06:43 145.980
Oscar 19 12 Feb 12:01:49 12:06:38 40° 63° (ENE) 12:11:25 437.125/150
AIST 1 12 Feb 12:08:18 12:12:01 26° 294° (WNW) 12:15:45
UKube-1 12 Feb 12:12:17 12:16:36 64° 103° (ESE) 12:20:54 .
DANDE 12 Feb 12:14:44 12:21:53 46° 63° (ENE) 12:27:26 436.750
GONETS M04 12 Feb 12:15:11 12:21:16 20° 315° (NW) 12:27:26
AISAT 12 Feb 12:15:15 12:19:42 78° 103° (ESE) 12:24:06 437.250
Oscar 11 12 Feb 12:15:36 12:17:07 12° 309° (NW) 12:18:37 145.826/435.025
TISAT 1 12 Feb 12:16:17 12:18:07 13° 86° (E) 12:19:57 437.305
SPROUT 12 Feb 12:16:51 12:20:38 29° 95° (E) 12:24:22 437.525
BUGSAT 1 12 Feb 12:25:23 12:28:45 23° 267° (W) 12:32:06 437.445
RS-15 12 Feb 12:26:20 12:37:32 76° 127° (SE) 12:49:26 29.354- 29.394
CUBEBUG 1 12 Feb 12:26:38 12:31:03 83° 105° (ESE) 12:35:24 437.445
DX 1 12 Feb 12:29:27 12:33:51 79° 286° (WNW) 12:38:12 434.975-435.025
Cosmos 2504 12 Feb 12:39:05 12:42:04 12° 27° (NNE) 12:45:00 435.465 / 435.565
HO-68 12 Feb 12:43:25 12:46:30 13° 331° (NNW) 12:49:34 435.675
50 SAT 12 Feb 12:48:06 12:51:40 39° 293° (WNW) 12:55:14 437.505
ESTCUBE 1 12 Feb 12:48:41 12:53:08 52° 292° (WNW) 12:57:32 437.505/2401.250
YUBILEINY 12 Feb 12:53:15 13:01:14 35° 59° (ENE) 13:09:10 435.215
AO-85 12 Feb 12:55:14 13:00:19 36° 335° (NNW) 13:05:19 145.980
Gurwin Techsat 1B 12 Feb 12:55:40 13:00:42 46° 65° (ENE) 13:05:47 435.225
SO-50 12 Feb 12:58:34 13:03:25 63° 231° (SW) 13:08:05 436.795
CUSAT 1 12 Feb 13:00:40 13:06:46 61° 264° (W) 13:11:19 437.405
PCSat 12 Feb 13:08:16 13:13:14 35° 328° (NNW) 13:18:14 145.827
JAS-2 12 Feb 13:09:22 13:16:49 90° 36° (NE) 13:23:28 435.910
HUMSAT D 12 Feb 13:09:26 13:10:46 11° 308° (NW) 13:12:07 437.325/437.525
Cosmos 2491 12 Feb 13:12:59 13:17:33 16° 67° (ENE) 13:22:06 435.465 / 435.565
AO-7 12 Feb 13:13:22 13:20:33 34° 46° (NE) 13:27:44 29.400- 29.500
ITAMSAT 1 12 Feb 13:16:57 13:21:47 40° 62° (ENE) 13:26:39 435.822/435.867
Cosmos 2499 12 Feb 13:31:47 13:37:09 17° 320° (NW) 13:42:28 435.465 / 435.565
VELOX 1 12 Feb 13:35:01 13:38:39 25° 300° (WNW) 13:42:16 145.980
SWISSCUBE 12 Feb 13:37:35 13:41:05 20° 90° (E) 13:44:33 437.505
Oscar 19 12 Feb 13:41:07 13:45:58 40° 263° (W) 13:50:51 437.125/150
UKube-1 12 Feb 13:49:03 13:52:18 21° 303° (WNW) 13:55:32 .
TISAT 1 12 Feb 13:50:15 13:54:27 89° 76° (ENE) 13:58:38 437.305
AISAT 12 Feb 13:52:40 13:55:43 19° 304° (NW) 13:58:45 437.250
SPROUT 12 Feb 13:52:44 13:56:43 39° 294° (WNW) 14:00:40 437.525
DANDE 12 Feb 13:58:04 14:04:53 44° 271° (W) 14:10:11 436.750
CUBEBUG 1 12 Feb 14:03:58 14:06:48 17° 305° (NW) 14:09:38 437.445
DX 1 12 Feb 14:07:00 14:09:23 15° 308° (NW) 14:11:45 434.975-435.025
HORYU 2 12 Feb 14:10:59 14:13:21 14° 52° (NE) 14:15:41 437.375
ITUPSAT 1 12 Feb 14:15:26 14:19:53 35° 96° (E) 14:24:18 437.325
BEESAT 12 Feb 14:21:53 14:26:26 40° 98° (E) 14:30:57 436.000
ESTCUBE 1 12 Feb 14:27:52 14:28:58 11° 312° (NW) 14:30:04 437.505/2401.250
Cosmos 2504 12 Feb 14:31:23 14:39:05 33° 57° (ENE) 14:46:22 435.465 / 435.565
Gurwin Techsat 1B 12 Feb 14:35:58 14:40:49 35° 265° (W) 14:45:42 435.225
AO-85 12 Feb 14:37:45 14:42:14 25° 359° (N) 14:46:36 145.980
RS-15 12 Feb 14:39:31 14:50:49 58° 337° (NNW) 15:02:45 29.354- 29.394
SO-50 12 Feb 14:40:59 14:42:59 12° 251° (WSW) 14:44:57 436.795
CUSAT 1 12 Feb 14:45:54 14:47:16 11° 290° (WNW) 14:48:34 437.405
YUBILEINY 12 Feb 14:50:05 14:58:56 75° 264° (W) 15:07:42 435.215
PCSat 12 Feb 14:54:12 14:58:11 20° 353° (N) 15:02:12 145.827
ITAMSAT 1 12 Feb 14:56:25 15:01:17 40° 263° (W) 15:06:12 435.822/435.867
JAS-2 12 Feb 14:56:54 15:02:34 24° 272° (W) 15:07:51 435.910
M-CUBED/EXP-1 PRIME 12 Feb 14:58:35 15:01:57 53° 65° (ENE) 15:05:13 437.505
Cosmos 2491 12 Feb 15:03:59 15:12:27 60° 92° (E) 15:20:58 435.465 / 435.565
AO-7 12 Feb 15:04:11 15:12:36 87° 251° (WSW) 15:21:02 29.400- 29.500
AUBIESAT-1 12 Feb 15:05:39 15:09:01 52° 64° (ENE) 15:12:17 437.475
KKS-1 12 Feb 15:13:51 15:17:20 22° 92° (E) 15:20:46 437.445
SWISSCUBE 12 Feb 15:14:35 15:19:24 72° 289° (WNW) 15:24:11 437.505
CUTE-I 12 Feb 15:20:55 15:22:16 11° 42° (NE) 15:23:37 437.470
TISAT 1 12 Feb 15:27:08 15:29:34 15° 305° (NW) 15:31:59 437.305
MOZHAYETS 4 12 Feb 15:29:29 15:32:18 16° 87° (E) 15:35:06
O/OREOS (USA 219) 12 Feb 15:33:29 15:37:10 23° 41° (NE) 15:40:50 437.305
Cubesat XI-IV 12 Feb 15:34:17 15:36:44 13° 45° (NE) 15:39:11 437.490
HORYU 2 12 Feb 15:44:48 15:49:13 76° 72° (ENE) 15:53:39 437.375
ITUPSAT 1 12 Feb 15:53:17 15:57:47 40° 296° (WNW) 16:02:17 437.325
BEESAT 12 Feb 15:59:50 16:04:12 35° 297° (WNW) 16:08:32 436.000
HO-68 12 Feb 16:13:39 16:15:39 11° 24° (NNE) 16:17:40 435.675
AO-85 12 Feb 16:19:17 16:24:13 34° 23° (NNE) 16:28:52 145.980
GONETS M04 12 Feb 16:23:29 16:25:47 11° 25° (NNE) 16:28:04
STARS 12 Feb 16:24:35 16:28:53 54° 101° (E) 16:33:10 437.465
Cosmos 2504 12 Feb 16:24:46 16:33:32 80° 263° (W) 16:41:40 435.465 / 435.565
ISS 12 Feb 16:26:24 16:29:19 30° 156° (SSE) 16:32:13 145.825
M-CUBED/EXP-1 PRIME 12 Feb 16:34:49 16:36:55 15° 261° (W) 16:38:58 437.505
BRITE-PL 12 Feb 16:36:57 16:40:56 21° 55° (NE) 16:44:47 437.365/2234.400
PCSat 12 Feb 16:39:01 16:43:26 24° 19° (NNE) 16:47:50 145.827
AUBIESAT-1 12 Feb 16:41:47 16:43:55 15° 262° (W) 16:46:01 437.475
YUBILEINY 12 Feb 16:48:13 16:54:14 21° 288° (WNW) 17:00:14 435.215
KKS-1 12 Feb 16:49:53 16:54:15 56° 291° (WNW) 16:58:35 437.445
SWISSCUBE 12 Feb 16:53:44 16:56:27 15° 309° (NW) 16:59:10 437.505
RS-15 12 Feb 16:54:30 17:05:54 50° 9° (N) 17:17:46 29.354- 29.394
CUTE-I 12 Feb 16:56:03 17:01:02 42° 63° (ENE) 17:06:05 437.470
AO-7 12 Feb 16:59:54 17:06:33 26° 271° (W) 17:13:14 29.400- 29.500
Cosmos 2491 12 Feb 17:01:31 17:09:43 43° 296° (WNW) 17:17:58 435.465 / 435.565
MOZHAYETS 4 12 Feb 17:05:26 17:10:07 85° 289° (WNW) 17:14:47
Cubesat XI-IV 12 Feb 17:10:33 17:15:43 53° 66° (ENE) 17:20:57 437.490
O/OREOS (USA 219) 12 Feb 17:12:31 17:17:07 79° 243° (WSW) 17:21:43 437.305
BEESAT 3 12 Feb 17:14:08 17:17:54 42° 125° (SE) 17:21:42 437.485
LilacSat-2 12 Feb 17:16:30 17:20:05 39° 68° (ENE) 17:23:39 437.200
HORYU 2 12 Feb 17:23:32 17:26:21 16° 271° (W) 17:29:09 437.375
GOMX 1 12 Feb 17:26:34 17:30:46 25° 60° (ENE) 17:34:47 467.674
Cosmos 2499 12 Feb 17:31:24 17:34:02 11° 27° (NNE) 17:36:38 435.465 / 435.565
BEESAT 2 12 Feb 17:43:51 17:47:46 53° 128° (SE) 17:51:43 435.950
CUBESAT XI-V 12 Feb 17:54:40 17:59:10 41° 97° (E) 18:03:35 437.345
HO-68 12 Feb 17:55:13 18:01:11 29° 49° (NE) 18:07:10 435.675
AO-85 12 Feb 18:00:00 18:05:23 89° 229° (SW) 18:10:20 145.980
STARS 12 Feb 18:01:29 18:05:00 24° 301° (WNW) 18:08:31 437.465
ISS 12 Feb 18:02:15 18:05:28 61° 175° (S) 18:08:41 145.825
BRITE-PL 12 Feb 18:13:09 18:18:49 87° 73° (ENE) 18:24:13 437.365/2234.400
STRAND 1 12 Feb 18:14:43 18:16:36 12° 83° (E) 18:18:30 437.568
GONETS M04 12 Feb 18:18:54 18:26:31 31° 56° (NE) 18:34:05
Cosmos 2504 12 Feb 18:19:21 18:25:32 23° 287° (WNW) 18:31:29 435.465 / 435.565
PCSat 12 Feb 18:22:32 18:27:56 58° 43° (NE) 18:33:17 145.827
CUTE 1.7 + AOD 2 12 Feb 18:23:44 18:26:34 18° 57° (ENE) 18:29:25 437.475
SEEDS 12 Feb 18:25:04 18:27:26 15° 55° (NE) 18:29:49 437.485
AIST 2 12 Feb 18:26:48 18:30:00 22° 117° (ESE) 18:33:13 435.215
KKS-1 12 Feb 18:28:37 18:29:57 11° 311° (NW) 18:31:16 437.445
DOVE 4 12 Feb 18:29:14 18:33:50 42° 67° (ENE) 18:38:12 437.250
AAUSAT CUBESAT 2 12 Feb 18:31:54 18:33:20 12° 52° (NE) 18:34:46 437.432
CUTE-I 12 Feb 18:36:11 18:41:10 39° 263° (W) 18:46:12 437.470
MOZHAYETS 4 12 Feb 18:43:46 18:46:39 17° 306° (NW) 18:49:32
CUBEBUG 2 12 Feb 18:49:18 18:50:49 12° 52° (NE) 18:52:20 437.445
Cubesat XI-IV 12 Feb 18:51:23 18:56:05 31° 266° (W) 19:00:49 437.490
LilacSat-2 12 Feb 18:51:27 18:54:34 23° 267° (W) 18:57:40 437.200
BEESAT 3 12 Feb 18:51:58 18:55:44 38° 326° (NW) 18:59:31 437.485
O/OREOS (USA 219) 12 Feb 18:53:42 18:55:46 13° 262° (W) 18:57:49 437.305
CINEMA 3 12 Feb 19:01:01 19:04:56 31° 64° (ENE) 19:08:45 145.822/145.860
GOMX 1 12 Feb 19:03:17 19:08:32 66° 258° (WSW) 19:13:31 467.674
Cosmos 2491 12 Feb 19:05:07 19:09:36 15° 325° (NW) 19:14:07 435.465 / 435.565
CANX-2 12 Feb 19:07:54 19:11:53 43° 68° (ENE) 19:15:56 2200.000
RS-15 12 Feb 19:08:13 19:20:17 78° 40° (NE) 19:32:41 29.354- 29.394
BEESAT 2 12 Feb 19:22:10 19:25:52 34° 329° (NNW) 19:29:35 435.950
Cosmos 2499 12 Feb 19:23:16 19:30:46 32° 57° (ENE) 19:37:47 435.465 / 435.565
ZACube-1 12 Feb 19:29:09 19:31:27 15° 55° (NE) 19:33:45 437.345
CUBESAT XI-V 12 Feb 19:32:15 19:36:30 33° 297° (WNW) 19:40:41 437.345
FUNcube-1 12 Feb 19:36:13 19:38:45 16° 56° (NE) 19:41:18 145.935
COMPASS 1 12 Feb 19:38:34 19:42:33 45° 68° (ENE) 19:46:34 437.405
ISS 12 Feb 19:38:35 19:41:45 47° 194° (SSW) 19:44:53 145.825
HO-68 12 Feb 19:41:00 19:48:13 87° 254° (WSW) 19:55:29 435.675
AO-85 12 Feb 19:41:29 19:45:14 20° 248° (WSW) 19:48:46 145.980
PRISM 12 Feb 19:42:11 19:45:18 20° 91° (E) 19:48:24 437.425
STRAND 1 12 Feb 19:51:38 19:56:49 66° 103° (ESE) 20:01:57 437.568
BRITE-PL 12 Feb 19:53:58 19:57:54 19° 273° (W) 20:01:46 437.365/2234.400
CUTE 1.7 + AOD 2 12 Feb 19:57:44 20:01:57 75° 258° (WSW) 20:06:13 437.475
SEEDS 12 Feb 19:58:21 20:02:33 88° 73° (ENE) 20:06:48 437.485
Oscar 11 12 Feb 20:02:39 20:06:31 33° 64° (ENE) 20:10:23 145.826/435.025
AAUSAT CUBESAT 2 12 Feb 20:03:57 20:08:03 66° 72° (ENE) 20:12:14 437.432
AIST 2 12 Feb 20:03:58 20:08:07 70° 316° (NW) 20:12:19 435.215
PCSat 12 Feb 20:06:14 20:11:09 35° 245° (WSW) 20:16:02 145.827
DOVE 4 12 Feb 20:07:11 20:11:39 33° 265° (W) 20:15:54 437.250
GONETS M04 12 Feb 20:15:40 20:24:31 85° 261° (W) 20:33:22
UWE-3 12 Feb 20:16:34 20:20:35 45° 68° (ENE) 20:24:34 435.000/436.395/437.385
CUBEBUG 2 12 Feb 20:22:31 20:26:44 68° 72° (ENE) 20:30:54 437.445
AIST 1 12 Feb 20:30:32 20:34:08 24° 65° (ENE) 20:37:43
BEESAT 3 12 Feb 20:31:42 20:34:28 18° 349° (NNW) 20:37:16 437.485
CINEMA 3 12 Feb 20:37:51 20:42:03 39° 263° (W) 20:46:08 145.822/145.860
CANX-2 12 Feb 20:44:22 20:47:57 26° 267° (W) 20:51:33 2200.000
GOMX 1 12 Feb 20:45:34 20:47:30 12° 277° (W) 20:49:24 467.674
DELFI C3 12 Feb 20:52:22 20:56:15 52° 70° (ENE) 21:00:11 145.870
HUMSAT D 12 Feb 20:54:17 20:57:46 28° 63° (ENE) 21:01:16 437.325/437.525
BEESAT 2 12 Feb 21:02:05 21:04:50 17° 352° (N) 21:07:34 435.950
ZACube-1 12 Feb 21:03:01 21:07:11 89° 68° (ENE) 21:11:22 437.345
FUNcube-1 12 Feb 21:10:21 21:14:31 82° 254° (WSW) 21:18:41 145.935
COMPASS 1 12 Feb 21:14:55 21:18:21 24° 268° (W) 21:21:49 437.405
ISS 12 Feb 21:15:28 21:17:41 17° 214° (SW) 21:19:52 145.825
Cosmos 2499 12 Feb 21:16:23 21:24:56 79° 263° (W) 21:32:47 435.465 / 435.565
PRISM 12 Feb 21:16:52 21:21:00 56° 290° (WNW) 21:25:05 437.425
RS-15 12 Feb 21:21:02 21:32:14 47° 247° (WSW) 21:43:38 29.354- 29.394
VELOX 1 12 Feb 21:26:50 21:29:51 18° 55° (NE) 21:32:53 145.980
STRAND 1 12 Feb 21:31:25 21:35:37 26° 303° (WNW) 21:39:50 437.568
HO-68 12 Feb 21:31:32 21:36:58 23° 273° (W) 21:42:26 435.675
SEEDS 12 Feb 21:36:54 21:38:55 13° 274° (W) 21:40:57 437.485
CUTE 1.7 + AOD 2 12 Feb 21:37:39 21:38:36 11° 277° (W) 21:39:32 437.475
UKube-1 12 Feb 21:38:20 21:41:31 20° 57° (ENE) 21:44:43 .
Oscar 11 12 Feb 21:38:39 21:42:38 36° 264° (W) 21:46:38 145.826/435.025
AAUSAT CUBESAT 2 12 Feb 21:41:15 21:44:01 17° 271° (W) 21:46:49 437.432
AISAT 12 Feb 21:43:23 21:46:59 25° 59° (ENE) 21:50:36 437.250
AIST 2 12 Feb 21:43:54 21:47:18 23° 339° (NNW) 21:50:42 435.215
CUBEBUG 1 12 Feb 21:53:25 21:57:00 24° 60° (ENE) 22:00:34 437.445
UWE-3 12 Feb 21:53:51 21:57:17 24° 267° (W) 22:00:42 435.000/436.395/437.385
DX 1 12 Feb 21:55:29 21:59:20 31° 62° (ENE) 22:03:11 434.975-435.025
50 SAT 12 Feb 22:00:33 22:03:51 30° 65° (ENE) 22:07:11 437.505
CUBEBUG 2 12 Feb 22:01:04 22:03:50 17° 271° (W) 22:06:35 437.445
AIST 1 12 Feb 22:07:49 22:12:01 47° 266° (W) 22:16:09
BEESAT 3 12 Feb 22:10:45 22:13:35 18° 13° (NNE) 22:16:25 437.485
GONETS M04 12 Feb 22:13:33 22:20:08 25° 285° (WNW) 22:26:45
ANTELSAT 12 Feb 22:16:43 22:20:18 24° 93° (E) 22:23:55 437.575/2403.000
ESTCUBE 1 12 Feb 22:17:36 22:21:58 47° 67° (ENE) 22:26:21 437.505/2401.250
TIGRISAT 12 Feb 22:22:23 22:26:03 26° 93° (E) 22:29:45 435.000
DELFI C3 12 Feb 22:28:30 22:31:29 20° 269° (W) 22:34:30 145.870
HUMSAT D 12 Feb 22:29:29 22:33:19 39° 263° (W) 22:37:12 437.325/437.525
BEESAT 2 12 Feb 22:41:04 22:44:04 20° 16° (NNE) 22:47:04 435.950
ZACube-1 12 Feb 22:42:19 22:44:09 13° 274° (W) 22:45:58 437.345
POLYITAN 1 12 Feb 22:42:28 22:44:18 12° 86° (E) 22:46:08 437.675
QB50P2 12 Feb 22:42:50 22:44:49 13° 86° (E) 22:46:48 145.880/145.840
FUNcube-1 12 Feb 22:50:17 22:51:31 11° 275° (W) 22:52:44 145.935
PRISM 12 Feb 22:54:36 22:55:29 11° 311° (NW) 22:56:20 437.425
VELOX 1 12 Feb 23:01:21 23:05:49 81° 254° (WSW) 23:10:20 145.980
UNISAT 6 12 Feb 23:07:57 23:12:17 69° 103° (ESE) 23:16:42 437.425
Cosmos 2491 12 Feb 23:09:50 23:14:23 15° 35° (NE) 23:18:56 435.465 / 435.565
POPSAT HIP 1 12 Feb 23:10:44 23:14:02 22° 92° (E) 23:17:19 437.405
Cosmos 2499 12 Feb 23:10:46 23:16:39 22° 287° (WNW) 23:22:16 435.465 / 435.565
UKube-1 12 Feb 23:12:52 23:17:11 67° 256° (WSW) 23:21:33 .
DUCHIFAT 1 12 Feb 23:13:11 23:16:27 22° 92° (E) 23:19:43 145.980
NANOSAT C BR1 12 Feb 23:13:15 23:16:36 23° 92° (E) 23:19:56 145.865
TISAT 1 12 Feb 23:13:28 23:16:47 23° 60° (ENE) 23:20:06 437.305
SPROUT 12 Feb 23:16:25 23:20:34 50° 69° (ENE) 23:24:44 437.525
SWISSCUBE 12 Feb 23:17:14 23:17:40 10° 45° (NE) 23:18:06 437.505
AISAT 12 Feb 23:18:49 23:23:13 55° 259° (W) 23:27:37 437.250
QB50P1 12 Feb 23:22:49 23:26:30 28° 95° (E) 23:30:08 145.935-145.965
AIST 2 12 Feb 23:24:16 23:27:07 17° 3° (N) 23:29:58 435.215
CUBEBUG 1 12 Feb 23:28:40 23:33:01 55° 259° (W) 23:37:24 437.445
DX 1 12 Feb 23:31:17 23:35:26 41° 262° (W) 23:39:37 434.975-435.025
50 SAT 12 Feb 23:34:36 23:37:53 29° 264° (W) 23:41:13 437.505
RS-15 12 Feb 23:37:25 23:41:17 12° 272° (W) 23:45:12 29.354- 29.394
BEESAT 3 12 Feb 23:48:27 23:52:17 42° 36° (NE) 23:56:04 437.485
ITUPSAT 1 12 Feb 23:52:53 23:55:52 17° 52° (NE) 23:58:52 437.325
ANTELSAT 12 Feb 23:53:05 23:57:17 49° 292° (WNW) 00:01:32 437.575/2403.000
DANDE 12 Feb 23:53:18 23:54:58 11° 67° (ENE) 23:56:37 436.750
ESTCUBE 1 12 Feb 23:55:08 23:59:00 27° 267° (W) 00:02:54 437.505/2401.250
BEESAT 12 Feb 23:58:44 00:01:58 18° 54° (NE) 00:05:14 436.000
TIGRISAT 12 Feb 23:58:49 00:02:57 45° 293° (WNW) 00:07:08 435.000
BUGSAT 1 13 Feb 00:00:02 00:03:42 32° 96° (E) 00:07:20 437.445
POLYITAN 1 13 Feb 00:16:34 00:20:48 88° 100° (E) 00:25:01 437.675
QB50P2 13 Feb 00:17:02 00:21:17 89° 287° (WNW) 00:25:31 145.880/145.840
BEESAT 2 13 Feb 00:18:52 00:22:48 50° 38° (NE) 00:26:42 435.950
CUSAT 1 13 Feb 00:27:35 00:34:00 27° 83° (E) 00:40:04 437.405
VELOX 1 13 Feb 00:41:08 00:43:03 12° 274° (W) 00:44:59 145.980
UNISAT 6 13 Feb 00:45:30 00:48:38 20° 302° (WNW) 00:51:47 437.425
POPSAT HIP 1 13 Feb 00:46:02 00:50:08 51° 291° (WNW) 00:54:12 437.405
TISAT 1 13 Feb 00:48:03 00:52:12 53° 259° (W) 00:56:21 437.305
DUCHIFAT 1 13 Feb 00:48:23 00:52:29 51° 291° (WNW) 00:56:31 145.980
NANOSAT C BR1 13 Feb 00:48:33 00:52:37 49° 291° (WNW) 00:56:40 145.865
SWISSCUBE 13 Feb 00:49:50 00:54:22 44° 65° (ENE) 00:58:56 437.505
SPROUT 13 Feb 00:53:24 00:56:50 23° 268° (W) 01:00:17 437.525
QB50P1 13 Feb 00:58:28 01:02:24 39° 294° (WNW) 01:06:20 145.935-145.965
AIST 2 13 Feb 01:03:09 01:06:49 29° 27° (NNE) 01:10:28 435.215
Cosmos 2491 13 Feb 01:05:58 01:14:15 44° 64° (ENE) 01:22:31 435.465 / 435.565
Gurwin Techsat 1B 13 Feb 01:07:53 01:08:57 11° 81° (E) 01:10:01 435.225
BEESAT 3 13 Feb 01:26:20 01:30:02 37° 236° (SW) 01:33:40 437.485
ITUPSAT 1 13 Feb 01:28:14 01:33:02 81° 73° (ENE) 01:37:52 437.325
DANDE 13 Feb 01:28:19 01:35:52 41° 88° (E) 01:43:27 436.750
BEESAT 13 Feb 01:34:24 01:39:11 89° 255° (WSW) 01:44:01 436.000
BUGSAT 1 13 Feb 01:35:28 01:39:07 32° 295° (WNW) 01:42:42 437.445
Oscar 19 13 Feb 01:45:38 01:50:36 45° 99° (E) 01:55:30 437.125/150
STARS 13 Feb 01:52:45 01:55:45 18° 56° (NE) 01:58:45 437.465
POLYITAN 1 13 Feb 01:53:35 01:56:04 15° 305° (NW) 01:58:33 437.675
QB50P2 13 Feb 01:54:06 01:56:31 15° 305° (NW) 01:58:57 145.880/145.840
BEESAT 2 13 Feb 01:57:02 02:00:34 30° 239° (WSW) 02:04:03 435.950
JAS-2 13 Feb 01:57:50 02:03:19 43° 96° (E) 02:08:19 435.910
YUBILEINY 13 Feb 02:03:54 02:11:06 30° 78° (ENE) 02:18:19 435.215
CUSAT 1 13 Feb 02:07:24 02:15:36 89° 97° (E) 02:23:10 437.405
KKS-1 13 Feb 02:17:39 02:21:52 43° 67° (ENE) 02:26:07 437.445
SWISSCUBE 13 Feb 02:28:06 02:32:20 31° 265° (W) 02:36:37 437.505
MOZHAYETS 4 13 Feb 02:37:05 02:41:04 30° 62° (ENE) 02:45:06
AIST 2 13 Feb 02:41:33 02:45:43 75° 229° (SW) 02:49:50 435.215
Gurwin Techsat 1B 13 Feb 02:44:48 02:50:05 58° 101° (ESE) 02:55:20 435.225
AO-7 13 Feb 02:59:24 03:05:28 21° 86° (E) 03:11:28 29.400- 29.500
ITAMSAT 1 13 Feb 03:02:10 03:07:14 46° 99° (E) 03:12:16 435.822/435.867
Cosmos 2491 13 Feb 03:02:59 03:11:31 60° 269° (W) 03:20:03 435.465 / 435.565
ITUPSAT 1 13 Feb 03:08:22 03:11:30 17° 272° (W) 03:14:40 437.325
DANDE 13 Feb 03:10:16 03:18:34 67° 289° (WNW) 03:26:51 436.750
BEESAT 13 Feb 03:14:59 03:17:42 15° 273° (W) 03:20:27 436.000
Cosmos 2504 13 Feb 03:19:40 03:25:45 21° 72° (ENE) 03:31:52 435.465 / 435.565
Oscar 19 13 Feb 03:25:13 03:29:50 35° 299° (WNW) 03:34:27 437.125/150
STARS 13 Feb 03:27:14 03:31:38 78° 254° (WSW) 03:36:03 437.465
CUBESAT XI-V 13 Feb 03:29:06 03:31:55 16° 53° (NE) 03:34:45 437.345
JAS-2 13 Feb 03:43:06 03:48:26 38° 300° (WNW) 03:53:19 435.910
CUSAT 1 13 Feb 03:51:47 03:58:44 30° 302° (WNW) 04:05:09 437.405
KKS-1 13 Feb 03:54:46 03:58:38 28° 266° (W) 04:02:31 437.445
YUBILEINY 13 Feb 03:58:10 04:07:00 82° 282° (WNW) 04:15:56 435.215
M-CUBED/EXP-1 PRIME 13 Feb 04:07:26 04:08:55 12° 97° (E) 04:10:26 437.505
MOZHAYETS 4 13 Feb 04:13:45 04:18:08 44° 262° (W) 04:22:34
AUBIESAT-1 13 Feb 04:13:55 04:15:27 12° 97° (E) 04:17:02 437.475
AIST 2 13 Feb 04:21:38 04:23:31 13° 248° (WSW) 04:25:24 435.215
Gurwin Techsat 1B 13 Feb 04:25:13 04:29:47 30° 302° (WNW) 04:34:19 435.225
ITAMSAT 1 13 Feb 04:41:53 04:46:38 36° 299° (WNW) 04:51:22 435.822/435.867
AO-7 13 Feb 04:51:16 04:59:40 77° 109° (ESE) 05:07:59 29.400- 29.500
DANDE 13 Feb 04:56:38 05:03:07 24° 311° (NW) 05:09:27 436.750
SO-50 13 Feb 04:58:10 05:02:55 49° 126° (SE) 05:07:43 436.795
Cosmos 2491 13 Feb 05:01:50 05:06:26 16° 292° (WNW) 05:11:03 435.465 / 435.565
CUBESAT XI-V 13 Feb 05:03:54 05:08:37 80° 74° (ENE) 05:13:23 437.345
HORYU 2 13 Feb 05:05:47 05:10:13 62° 103° (ESE) 05:14:39 437.375
STARS 13 Feb 05:07:12 05:08:47 12° 275° (W) 05:10:22 437.465
Cosmos 2504 13 Feb 05:08:56 05:17:39 74° 96° (E) 05:26:32 435.465 / 435.565
Cubesat XI-IV 13 Feb 05:22:55 05:25:14 13° 83° (E) 05:27:32 437.490
JAS-2 13 Feb 05:30:54 05:31:52 10° 324° (NW) 05:32:50 435.910
STRAND 1 13 Feb 05:35:37 05:40:11 33° 61° (ENE) 05:44:46 437.568
M-CUBED/EXP-1 PRIME 13 Feb 05:40:37 05:43:58 70° 293° (WNW) 05:47:30 437.505
CUSAT 1 13 Feb 05:42:23 05:43:36 10° 326° (NNW) 05:44:47 437.405
AUBIESAT-1 13 Feb 05:47:01 05:50:27 72° 293° (WNW) 05:54:02 437.475
YUBILEINY 13 Feb 05:58:11 06:05:22 27° 308° (NW) 06:12:36 435.215
BRITE-PL 13 Feb 06:13:07 06:16:15 17° 86° (E) 06:19:15 437.365/2234.400
LilacSat-2 13 Feb 06:18:01 06:21:12 25° 93° (E) 06:24:23 437.200
